Regional Weather Roundup
Issued by NWS Midland/Odessa, TX

Current Version | Previous Version | Text Only | Print | Product List | Glossary On
Versions: 1 2 3 4 5 6 7 8 9 10 11 12 13 14 15 16 17 18 19 20 21 22 23 24 25 26 27 28 29 30 31 32 33 34 35 36 37 38 39 40 41 42 43 44 45 46 47 48 49 50
000
ASUS44 KMAF 071001
RWRMAF
MIDLAND AREA WEATHER ROUNDUP
NATIONAL WEATHER SERVICE MIDLAND TX
500 AM CDT THU MAY 07 2015

...IN SOUTHWEST TEXAS AND SOUTHEAST NEW MEXICO...

CITY           SKY/WX    TMP DP  RH WIND       PRES   REMARKS
ALPINE         CLEAR     63  56  80 SW6       29.91S
ANDREWS        CLOUDY    67  64  88 S9        29.82R
ARTESIA        PTCLDY    61  61 100 S6        29.81F FOG
BIG SPRING     CLOUDY    72  66  83 SE13      29.82S
CARLSBAD       CLEAR     61  58  90 W9        29.80R FOG
DRYDEN           N/A     73  69  87 SE12      29.77S
FORT STOCKTON  CLEAR     67  62  84 SE14      29.77S
GUAD PASS      NOT AVBL
HOBBS          CLOUDY    64  64 100 S8        29.84S
MARFA          CLEAR     54  50  87 W5        29.91S
MIDLAND AIRPK  CLOUDY    70  64  81 S14       29.79S
MIDLAND INTL   MOCLDY    69  63  81 S16       29.77F
ODESSA         MOCLDY    69  63  81 S13       29.79S
PECOS          CLEAR     65  60  82 E8        29.74F
PRESIDIO       FAIR      68  56  65 N5        29.79R
SEMINOLE       CLOUDY    65  63  94 S5        29.84R
SNYDER         CLOUDY    69  65  86 SE8       29.84S
WINK           CLOUDY    70  62  76 SE10      29.77R
$$
...OTHER STATIONS IN TEXAS...

CITY           SKY/WX    TMP DP  RH WIND       PRES   REMARKS
ABILENE        CLEAR     69  63  81 SE17      29.84R
AMARILLO       CLOUDY    60  59  96 S16       29.84R
AUSTIN         CLOUDY    73  70  90 S7        29.86S
BROWNSVILLE    CLOUDY    78  75  90 SE14G25   29.78F
CORPUS CHRISTI CLOUDY    77  73  87 SE15      29.81F
DALLAS FTW     CLOUDY    69  66  90 N17       29.92R
DEL RIO        LGT RAIN  72  70  93 SE13      29.77S FOG
EL PASO        PTCLDY    69  25  19 NW12      29.86R
HOUSTON INT    MOCLDY    74  71  91 SE7       29.90S
LUBBOCK        CLOUDY    65  63  93 SE9       29.85S
SAN ANGELO     CLOUDY    73  65  75 SE9       29.81R
SAN ANTONIO    CLOUDY    73  69  87 SE10      29.86S
WACO           CLOUDY    71  68  90 SE10      29.89R
WICHITA FALLS  NOT AVBL
$$
...OTHER LOCATIONS IN NEW MEXICO...

CITY           SKY/WX    TMP DP  RH WIND       PRES   REMARKS
ALAMAGORDO     CLOUDY    55  28  35 SE9       29.87R
ALBUQUERQUE    CLEAR     52  44  74 CALM      29.91R
CANNON AFB     MOCLDY    59  57  93 W13G21    29.85R
CLOVIS         PTCLDY    55  54  94 SW8       29.85S
HOLLOMAN AFB   PTCLDY    60  27  28 SE3       29.85R
ROSWELL        PTCLDY    56  50  80 S7        29.81S
RUIDOSO        CLEAR     46  21  36 SW10      29.98S
SANTA FE       CLEAR     43  37  79 N9        29.93S WCI  38
TRUTH OR CONSE CLEAR     53  17  24 W3        29.88R
TUCUMCARI      CLEAR     51  44  77 W8        29.83R
$$



USA.gov is the U.S. government's official web portal to all federal, state and local government web resources and services.